Location: Plainartige
(45.6866°N, 1.7993°E)
Time: 20:33:32
(UTC+00:00)

FALCON 9 DEB - Pass Details

Date: 03 March 2021
Orbit: 424 x 435 km, 53.0° (Epoch: 13 April)

Event Time Altitude Azimuth Distance (km) Brightness Sun altitude
Rises 18:20:00 0° 302° (WNW) 2,405 8.0 -7.3°
Reaches altitude 10° 18:22:13 10° 310° (NW) 1,534 6.7 -7.7°
Maximum altitude 18:25:28 38° 21° (NNE) 671 3.9 -8.3°
Enters shadow 18:28:20 12° 89° (E) 1,388 5.0 -8.8°
